Regional Weather Roundup
Issued by NWS

Current Version | Previous Version | Text Only | Print | Product List | Glossary Off
Versions: 1 2 3 4 5 6 7 8 9 10 11 12 13 14 15 16 17 18 19 20 21 22 23 24 25 26 27 28 29 30 31 32 33 34 35 36 37 38 39 40 41 42 43 44 45 46 47 48 49 50

000
ASUS42 KFFC 200310
RWRGA
WEATHER ROUNDUP FOR GEORGIA
NATIONAL WEATHER SERVICE PEACHTREE CITY GA
1000 PM EST FRI JAN 19 2018

NOTE: "FAIR" INDICATES FEW OR NO CLOUDS BELOW 12,000 FEET WITH NO
SIGNIFICANT WEATHER AND/OR OBSTRUCTIONS TO VISIBILITY.

* = USE WITH CAUTION. THE STATIONS MARKED WITH AN ASTERISK MAY NOT
REPORT WEATHER SUCH AS PRECIPITATION, FOG, OR THUNDER AND ARE NOT
QUALITY CONTROLLED BY NWS.

THE REMARK "TC" DENOTES TEMPERATURE READING IN DEGREES CELSIUS.

GAZ001>058-200400-
NORTH GEORGIA

CITY           SKY/WX    TMP DP  RH WIND       PRES   REMARKS
ATLANTA        FAIR      43   8  23 W5        30.23S
ATHENS         FAIR      38   6  26 SW5       30.22R WCI  34
CHAMBLEE       FAIR      30  16  56 CALM      30.23R
PEACHTREE CITY FAIR      29  19  66 CALM      30.26R
ROME           FAIR      27  19  72 CALM      30.25R
WEST ATLANTA   FAIR      30  20  66 CALM      30.24S
GAINESVILLE    FAIR      38  13  35 W8        30.22R WCI  32
CARTERSVILLE   FAIR      27  17  66 CALM      30.26R


CITY           SKY/WX    TMP DP  RH WIND       PRES   REMARKS
DALTON*        FAIR      28  21  74 CALM      30.26R
LAWRENCEVILLE* FAIR      29  16  58 CALM        N/A
MARIETTA       CLEAR     31  13  48 CALM      30.23R
KENNESAW*      CLEAR     30  18  59 CALM      30.25R
CANTON*        FAIR      39  10  30 CALM      30.24R
BLAIRSVILLE*   FAIR      24  16  70 CALM      30.21R
$$

GAZ059>098-102>109-200400-
CENTRAL GEORGIA

CITY           SKY/WX    TMP DP  RH WIND       PRES   REMARKS
AUGUSTA-BUSH   FAIR      31  19  61 CALM      30.23R
AUGUSTA-DANIEL FAIR      47  12  24 W5        30.22S
COLUMBUS       FAIR      38  21  50 CALM      30.27S
MACON          FAIR      31  23  72 W5        30.26R WCI  26
ROBINS AFB     CLEAR     34  20  56 CALM      30.26R


CITY           SKY/WX    TMP DP  RH WIND       PRES   REMARKS
LAGRANGE*      FAIR      31  22  70 CALM      30.27S
SYLVANIA*      FAIR      35  27  72 CALM      30.26R
MILLEDGEVILLE* FAIR      34  23  64 CALM      30.24S
$$

GAZ099>101-110>166-200400-
SOUTH GEORGIA

CITY           SKY/WX    TMP DP  RH WIND       PRES   REMARKS
SAVANNAH       FAIR      40  24  53 CALM      30.28R
VALDOSTA       FAIR      32  25  75 CALM      30.29S
ALMA           FAIR      34  28  79 CALM      30.28R
ST SIMONS      FAIR      40  32  73 SW5       30.29R
FT STEWART     FAIR      35  24  65 CALM      30.26R
ALBANY         FAIR      36  23  59 CALM      30.31R
HUNTER AFB     FAIR      37  30  76 CALM      30.25R
MOODY AFB      FAIR      36  28  72 CALM      30.27F
BRUNSWICK      FAIR      37  32  81 CALM      30.30R


CITY           SKY/WX    TMP DP  RH WIND       PRES   REMARKS
BAINBRIDGE*    FAIR      36  30  80 CALM      30.30R
MOULTRIE*      FAIR      37  28  70 CALM      30.29S
VIDALIA*       FAIR      36  25  64 CALM      30.26S
WAYCROSS*      FAIR      35  26  67 CALM      30.28S
DOUGLAS*       FAIR      36  27  69 CALM      30.29S
$$



USA.gov is the U.S. government's official web portal to all federal, state and local government web resources and services.